Location: Bernadets
(43.3537°N, 0.3167°E)
Time: 06:23:53
(UTC+00:00)

Lacrosse 4 Rocket - Pass Details

Date: 24 October 2021
Orbit: 537 x 619 km, 68.0° (Epoch: 02 December)

Event Time Altitude Azimuth Distance (km) Brightness Sun altitude
Rises 17:27:04 0° 340° (NNW) 2,808 5.0 -5.4°
Reaches altitude 10° 17:29:37 10° 354° (N) 1,920 4.0 -5.8°
Maximum altitude 17:33:12 25° 50° (NE) 1,219 2.6 -6.5°
Drops below altitude 10° 17:36:51 10° 107° (ESE) 1,950 3.6 -7.1°
Enters shadow 17:38:25 - 116° (ESE) 2,491 4.2 -7.4°
